Location: Byszew
(52.1813°N, 19.2693°E)
Time: 23:54:05
(UTC+00:00)

Envisat - Pass Details

Date: 03 February 2022
Orbit: 764 x 765 km, 98.2° (Epoch: 22 May)

Event Time Altitude Azimuth Distance (km) Brightness Sun altitude
Rises 02:38:07 0° 23° (NNE) 3,244 6.7 -34.0°
Reaches altitude 10° 02:40:52 10° 37° (NE) 2,313 6.0 -33.6°
Maximum altitude 02:45:00 25° 91° (E) 1,531 5.1 -33.0°
Drops below altitude 10° 02:49:07 10° 146° (SE) 2,300 5.6 -32.4°
Sets 02:51:49 0° 159° (SSE) 3,221 6.3 -32.0°
